Location: Boiro
(42.6475°N, 8.8834°W)
Time: 11:43:02
(UTC+02:00)

deb Agena D - Pass Details

Date: 11 July 2022
Orbit: 997 x 1025 km, 100.1° (Epoch: 16 August)

Event Time Altitude Azimuth Distance (km) Brightness Sun altitude
Exits shadow 03:17:01 17° 257° (WSW) 2,365 ? -24.7°
Maximum altitude 03:18:08 17° 269° (W) 2,324 ? -24.7°
Drops below altitude 10° 03:22:09 10° 309° (NW) 2,824 ? -24.5°
Sets 03:25:41 0° 329° (NNW) 3,779 ? -24.4°
